Regional Weather Roundup
Issued by NWS

Home | Current Version | Previous Version | Text Only | Print | Product List | Glossary On
Versions: 1 2 3 4 5 6 7 8 9 10 11 12 13 14 15 16 17 18 19 20 21 22 23 24 25 26 27 28 29 30 31 32 33 34 35 36 37 38 39 40 41 42 43 44 45 46 47 48 49 50
000
ASUS44 KMEG 060210
RWRTN
TENNESSEE HOURLY STATE WEATHER ROUNDUP
NATIONAL WEATHER SERVICE MEMPHIS TN
900 PM CDT TUE MAY 05 2015

TNZ002-004-019-021-049-052-054-088>092-060300-
WEST TENNESSEE

CITY           SKY/WX    TMP DP  RH WIND       PRES   REMARKS
MEMPHIS INTL   CLEAR     77  52  41 SE6       30.14R
NWS MEMPHIS      N/A     69 N/A N/A MISG        N/A
JACKSON        CLEAR     65  56  72 SE3       30.16R
DYERSBURG      CLEAR     73  46  38 SE5       30.15S
PARIS          CLEAR     66  52  59 S6        30.18R
LEXINGTON      CLEAR     64  57  77 CALM      30.17S
$$

TNZ008-025-027-028-033-062-065-066-060300-
NORTH MIDDLE TENNESSEE

CITY           SKY/WX    TMP DP  RH WIND       PRES   REMARKS
NASHVILLE      CLEAR     73  54  51 CALM      30.19R
CLARKSVILLE    CLEAR     69  55  60 CALM      30.18R
SMYRNA         CLEAR     68  57  67 CALM      30.20R
COOKEVILLE     PTCLDY    64  57  77 CALM      30.22R
CROSSVILLE     PTCLDY    66  52  60 CALM      30.26R
$$

TNZ061-075-076-078-094-096-097-060300-
SOUTH MIDDLE TENNESSEE

CITY           SKY/WX    TMP DP  RH WIND       PRES   REMARKS
FAYETTEVILLE     N/A     70  54  56 CALM      30.21R
TULLAHOMA      CLEAR     66  55  68 CALM      30.23R
WINCHESTER     PTCLDY    68  57  68 CALM      30.22R
MCMINNVILLE    MOCLDY    66  59  77 CALM      30.22R SQUALL
COLUMBIA       CLEAR     66  57  72 CALM      30.19R
SHELBYVILLE    CLEAR     68  59  73 E5        30.22R
$$

TNZ017-018-042-046-047-060300-
NORTHEAST TENNESSEE

CITY           SKY/WX    TMP DP  RH WIND       PRES   REMARKS
TRI CITIES     CLOUDY    73  53  49 CALM      30.26R
ELIZABETHTON   CLOUDY    64  55  72 NE5       30.27R
$$

TNZ012-013-036-069-073-074-060300-
CENTRAL EAST TENNESSEE

CITY           SKY/WX    TMP DP  RH WIND       PRES   REMARKS
KNOXVILLE      CLOUDY    69  59  70 SE10      30.22R
OAK RIDGE      MOCLDY    76  55  48 VRB3      30.23R
MORRISTOWN     CLEAR     70  55  60 S3        30.25R
$$

TNZ083-085-099-060300-
SOUTHEAST TENNESSEE

CITY           SKY/WX    TMP DP  RH WIND       PRES   REMARKS
CHATTANOOGA    MOCLDY    76  56  49 SE5       30.21R
$$

SKY/WX REPORTED AS FAIR MEANS FEW OR NO CLOUDS BELOW
12 THOUSAND FEET.



USA.gov is the U.S. government's official web portal to all federal, state and local government web resources and services.